OPS 0856 DEB, 26671

Orbit data source: Space-Track

OPS 0856 DEB, 26671 is space debris in LEO originally from a launch on Fri, 19 Aug 1966 UTC launched from the Air Force Western Test Range (AFWTR). Debris objects in space refer to the collection of defunct objects orbiting the Earth. Examples of debris include non-operational satellites, rocket bodies, and fragments generated from explosions, collisions, or faulty payload assembly.

Loading next visibility...
Identifier
26671, 1966-077Z
Orbit
LEO
Country
Flag of USUS
Related business
Manufacturer
Unknown
Mission
Spacecraft
Bus & Motor
Unknown
Mass
Unknown
Launch date (UTC)
1966-08-19 (60 years ago)
Launch vehicle
Unknown
Launch site
Air Force Western Test Range (AFWTR)
Object type
Payload
Rocket body
Debris
Shape & HBR
Unknown shape, 0.1 m
Radar Cross Section
Medium (>0.1 m² and <1 m²)

Expand to show TLE details & history
Last TLE update: 4 months ago

TLE from 4 months ago
0 OPS 0856 DEB
1 26671U 66077Z   26115.20995621 -.00001381  00000-0 -45659+0 0  9990
2 26671  89.5533 214.9221 0576773 357.9273   1.9231  8.82570414 35024
Epoch: 2026-04-25T05:02Z
TLE epoch observation values (Epoch: 2026-04-25T05:02:20.216Z)
Latitude
-0.00009°
Longitude
-73.89374°
Altitude
2,944.81 km
Speed
6.725 km/s
True Right ascension
14h 19m 41s
True Declination
0° 00' 00"
Sunlit
Object was in full shadow at epoch
Visualization orbit readout
Latitude
Unknown
Longitude
Unknown
Altitude
Unknown
Speed
Unknown
Apparent Right ascension
Unknown
Apparent Declination
Unknown
Sunlit
N/A
Visualization observer readout
Local Sidereal Time
06:23:10
Azimuth
Unknown
Elevation
Unknown
Doppler factor
Unknown
Orbital elements
Apogee altitude
4,080.879 km
Perigee altitude
2,940.176 km
Semi-major axis
9,888.664 km
Eccentricity
0.05768
Inclination
89.5533°
RAAN
214.9221°
Arg. of periapsis
357.9273°
True anomaly
2.16206°
Mean anomaly
1.9231°
Eccentric anomaly
2.04078°
Mean motion
2.20717 °/min
Orbital period
163.1 mins
BSTAR
-0.45659
Loading maneuver chart data...
Computing Atmospheric mass density...
Loading historical data...
Loading historical data...
Loading historical data...
Loading historical data...
Loading historical data...
Loading historical data...
Loading historical data...

Documentation

Showing up to 5 results
|